Tracking 35280 objects as of 7-Sep-2026
HD Live streaming from Space Station
objects crossing your sky now

DELTA 1 DEB

Track DELTA 1 DEB now!
10-day predictions


NORAD ID: 8678
Int'l Code: 1975-004F
Launch date: January 22, 1975
Source: United States (US)
Launch site: AIR FORCE WESTERN TEST RANGE (AFWTR)

Note: This is SATELLITE DEBRIS
Your satellite tracking list
Your tracking list is empty




NASA's NSSDC Master Catalog

Two Line Element Set (TLE):
1 08678U 75004F   26249.47024766  .00000070  00000-0  51888-4 0  9995
2 08678  97.6340 230.1694 0173172 266.0151  92.1213 14.10384362650042
Source of the keplerian elements: AFSPC